| time (UTC) | temp F | wind direction | speed knots | gust knots | rain 1hr in | rain 24hr in | rain mn in | humidity % | barometer mb |
| 20260504214512 | 73 | 263 | 8.7 | 14.8 | 0.00 | 0.00 | 0.00 | 35 | 1009.1 |
| 20260504214010 | 73 | 359 | 6.1 | 17.4 | 0.00 | 0.00 | 0.00 | 35 | 1009.1 |
| 20260504213508 | 73 | 275 | 7.0 | 17.4 | 0.00 | 0.00 | 0.00 | 35 | 1009.2 |
| 20260504213026 | 73 | 230 | 10.4 | 17.4 | 0.00 | 0.00 | 0.00 | 35 | 1009.2 |
| 20260504212507 | 73 | 262 | 8.7 | 17.4 | 0.00 | 0.00 | 0.00 | 34 | 1009.2 |
| 20260504212007 | 73 | 256 | 5.2 | 12.2 | 0.00 | 0.00 | 0.00 | 35 | 1009.1 |
| 20260504211514 | 74 | 270 | 4.3 | 13.9 | 0.00 | 0.00 | 0.00 | 35 | 1009.2 |
| 20260504211006 | 73 | 208 | 6.1 | 12.2 | 0.00 | 0.00 | 0.00 | 35 | 1009.2 |
| 20260504210508 | 73 | 247 | 5.2 | 12.2 | 0.00 | 0.00 | 0.00 | 35 | 1009.1 |
| 20260504210008 | 73 | 214 | 8.7 | 15.6 | 0.00 | 0.00 | 0.00 | 34 | 1009.1 |
| 20260504205505 | 73 | 226 | 8.7 | 15.6 | 0.00 | 0.00 | 0.00 | 35 | 1009.1 |
| 20260504205006 | 73 | 230 | 7.0 | 20.9 | 0.00 | 0.00 | 0.00 | 35 | 1009.0 |
| 20260504204504 | 73 | 230 | 8.7 | 20.9 | 0.00 | 0.00 | 0.00 | 34 | 1009.0 |
| 20260504204003 | 73 | 205 | 7.8 | 14.8 | 0.00 | 0.00 | 0.00 | 35 | 1009.1 |
| 20260504203508 | 73 | 199 | 6.1 | 20.9 | 0.00 | 0.00 | 0.00 | 35 | 1009.1 |
| 20260504203007 | 73 | 224 | 8.7 | 20.9 | 0.00 | 0.00 | 0.00 | 35 | 1009.2 |
| 20260504202501 | 73 | 248 | 9.6 | 18.2 | 0.00 | 0.00 | 0.00 | 35 | 1009.3 |
| 20260504202003 | 73 | 359 | 8.7 | 18.2 | 0.00 | 0.00 | 0.00 | 35 | 1009.3 |
| 20260504201504 | 73 | 229 | 3.5 | 13.9 | 0.00 | 0.00 | 0.00 | 35 | 1009.1 |
| 20260504201002 | 73 | 263 | 7.0 | 13.0 | 0.00 | 0.00 | 0.00 | 34 | 1009.3 |
| 20260504200600 | 73 | 359 | 7.0 | 13.0 | 0.00 | 0.00 | 0.00 | 35 | 1009.3 |
| 20260504200100 | 73 | 218 | 8.7 | 15.6 | 0.00 | 0.00 | 0.00 | 36 | 1009.2 |
| 20260504195602 | 73 | 201 | 7.8 | 15.6 | 0.00 | 0.00 | 0.00 | 35 | 1009.3 |
| 20260504195059 | 73 | 359 | 4.3 | 17.4 | 0.00 | 0.00 | 0.00 | 36 | 1009.4 |
| 20260504194608 | 73 | 359 | 7.8 | 17.4 | 0.00 | 0.00 | 0.00 | 36 | 1009.4 |
| 20260504194058 | 73 | 233 | 7.0 | 14.8 | 0.00 | 0.00 | 0.00 | 37 | 1009.4 |
| 20260504193558 | 73 | 324 | 7.0 | 13.0 | 0.00 | 0.00 | 0.00 | 36 | 1009.4 |
| 20260504193109 | 72 | 235 | 7.8 | 12.2 | 0.00 | 0.00 | 0.00 | 37 | 1009.3 |
| 20260504192555 | 72 | 316 | 7.0 | 18.2 | 0.00 | 0.00 | 0.00 | 36 | 1009.4 |
| 20260504192055 | 72 | 305 | 9.6 | 20.0 | 0.00 | 0.00 | 0.00 | 36 | 1009.5 |
| 20260504191555 | 72 | 268 | 11.3 | 20.0 | 0.00 | 0.00 | 0.00 | 35 | 1009.8 |
| 20260504191054 | 72 | 210 | 5.2 | 13.9 | 0.00 | 0.00 | 0.00 | 35 | 1009.6 |
| 20260504190557 | 73 | 231 | 8.7 | 14.8 | 0.00 | 0.00 | 0.00 | 35 | 1009.7 |
| 20260504190113 | 73 | 359 | 3.5 | 10.4 | 0.00 | 0.00 | 0.00 | 36 | 1009.7 |
| 20260504185553 | 72 | 318 | 3.5 | 16.5 | 0.00 | 0.00 | 0.00 | 37 | 1009.7 |
| 20260504185051 | 72 | 18 | 7.0 | 16.5 | 0.00 | 0.00 | 0.00 | 37 | 1009.8 |
| 20260504184559 | 72 | 217 | 8.7 | 20.0 | 0.00 | 0.00 | 0.00 | 36 | 1009.9 |
| 20260504184050 | 71 | 185 | 9.6 | 20.0 | 0.00 | 0.00 | 0.00 | 36 | 1010.3 |
| 20260504183552 | 71 | 250 | 9.6 | 20.0 | 0.00 | 0.00 | 0.00 | 37 | 1010.3 |
| 20260504183048 | 71 | 359 | 7.8 | 20.0 | 0.00 | 0.00 | 0.00 | 36 | 1010.2 |
| 20260504182550 | 71 | 359 | 9.6 | 20.9 | 0.00 | 0.00 | 0.00 | 35 | 1010.4 |
| 20260504182046 | 71 | 359 | 9.6 | 15.6 | 0.00 | 0.00 | 0.00 | 38 | 1010.5 |
| 20260504181545 | 71 | 305 | 7.0 | 13.9 | 0.00 | 0.00 | 0.00 | 36 | 1010.5 |
| 20260504181044 | 71 | 230 | 7.0 | 13.0 | 0.00 | 0.00 | 0.00 | 38 | 1010.7 |
| 20260504180546 | 71 | 264 | 7.0 | 17.4 | 0.00 | 0.00 | 0.00 | 36 | 1010.7 |
| 20260504180044 | 71 | 231 | 7.0 | 17.4 | 0.00 | 0.00 | 0.00 | 36 | 1010.8 |
| 20260504175541 | 70 | 359 | 7.0 | 18.2 | 0.00 | 0.00 | 0.00 | 37 | 1010.9 |
| 20260504175043 | 70 | 241 | 8.7 | 18.2 | 0.00 | 0.00 | 0.00 | 37 | 1011.0 |
| 20260504174540 | 70 | 285 | 3.5 | 18.2 | 0.00 | 0.00 | 0.00 | 38 | 1011.0 |
| 20260504174040 | 70 | 211 | 8.7 | 20.0 | 0.00 | 0.00 | 0.00 | 38 | 1011.1 |
| 20260504173539 | 70 | 241 | 10.4 | 20.0 | 0.00 | 0.00 | 0.00 | 37 | 1011.0 |
| 20260504173047 | 70 | 264 | 8.7 | 14.8 | 0.00 | 0.00 | 0.00 | 38 | 1010.9 |
| 20260504172537 | 69 | 266 | 9.6 | 15.6 | 0.00 | 0.00 | 0.00 | 38 | 1011.1 |
| 20260504172037 | 69 | 359 | 9.6 | 15.6 | 0.00 | 0.00 | 0.00 | 38 | 1011.1 |
| 20260504171536 | 69 | 233 | 8.7 | 19.1 | 0.00 | 0.00 | 0.00 | 38 | 1011.1 |
| 20260504171035 | 69 | 279 | 10.4 | 19.1 | 0.00 | 0.00 | 0.00 | 39 | 1011.2 |
| 20260504170534 | 69 | 359 | 8.7 | 16.5 | 0.00 | 0.00 | 0.00 | 39 | 1011.5 |
| 20260504151018 | 66 | 208 | 8.7 | 16.5 | 0.00 | 0.00 | 0.00 | 41 | 1012.9 |
| 20260504150517 | 66 | 258 | 4.3 | 13.9 | 0.00 | 0.00 | 0.00 | 41 | 1012.9 |
| 20260504141011 | 63 | 242 | 10.4 | 19.1 | 0.00 | 0.00 | 0.00 | 44 | 1013.1 |
| 20260504140508 | 63 | 247 | 8.7 | 17.4 | 0.00 | 0.00 | 0.00 | 46 | 1013.2 |
| 20260504130555 | 59 | 269 | 4.3 | 10.4 | 0.00 | 0.00 | 0.00 | 56 | 1014.0 |
| 20260504110534 | 49 | 359 | 5.2 | 8.7 | 0.00 | 0.00 | 0.00 | 68 | 1014.2 |
| 20260504100529 | 48 | 247 | 3.5 | 8.7 | 0.00 | 0.00 | 0.00 | 65 | 1014.1 |
| 20260504081514 | 48 | 359 | 4.3 | 7.0 | 0.00 | 0.00 | 0.00 | 58 | 1013.6 |
| 20260504081014 | 48 | 256 | 3.5 | 7.8 | 0.00 | 0.00 | 0.00 | 58 | 1013.6 |
| 20260504080514 | 48 | 260 | 2.6 | 7.0 | 0.00 | 0.00 | 0.00 | 58 | 1013.6 |
| 20260504050550 | 51 | 245 | 2.6 | 5.2 | 0.00 | 0.00 | 0.00 | 52 | 1013.2 |
| 20260504045550 | 51 | 359 | 2.6 | 7.0 | 0.00 | 0.00 | 0.00 | 51 | 1013.2 |
| 20260504045048 | 51 | 359 | 2.6 | 7.0 | 0.00 | 0.00 | 0.00 | 51 | 1013.2 |
| 20260504044558 | 51 | 262 | 2.6 | 7.0 | 0.00 | 0.00 | 0.00 | 51 | 1013.1 |
| 20260504044047 | 51 | 231 | 1.7 | 6.1 | 0.00 | 0.00 | 0.00 | 51 | 1013.2 |
| 20260504043545 | 51 | 236 | 2.6 | 7.8 | 0.00 | 0.00 | 0.00 | 51 | 1013.0 |
| 20260504043046 | 51 | 271 | 2.6 | 7.8 | 0.00 | 0.00 | 0.00 | 51 | 1013.1 |
| 20260504042542 | 51 | 261 | 3.5 | 7.0 | 0.00 | 0.00 | 0.00 | 51 | 1013.0 |
| 20260504042042 | 51 | 268 | 1.7 | 7.0 | 0.00 | 0.00 | 0.00 | 51 | 1012.9 |
| 20260504041541 | 51 | 241 | 3.5 | 7.0 | 0.00 | 0.00 | 0.00 | 50 | 1012.9 |
| 20260504041041 | 52 | 359 | 2.6 | 4.3 | 0.00 | 0.00 | 0.00 | 50 | 1012.8 |
| 20260504040541 | 52 | 280 | 1.7 | 4.3 | 0.00 | 0.00 | 0.00 | 50 | 1012.8 |
| 20260504040038 | 52 | 359 | 1.7 | 4.3 | 0.00 | 0.00 | 0.00 | 49 | 1012.7 |
| 20260504035538 | 52 | 235 | 2.6 | 6.1 | 0.00 | 0.00 | 0.00 | 49 | 1012.8 |
| 20260504035037 | 52 | 253 | 3.5 | 6.1 | 0.00 | 0.00 | 0.00 | 49 | 1012.7 |
| 20260504034545 | 52 | 359 | 0.9 | 4.3 | 0.00 | 0.00 | 0.00 | 49 | 1012.7 |
| 20260504034036 | 52 | 264 | 2.6 | 6.1 | 0.00 | 0.00 | 0.00 | 48 | 1012.7 |
| 20260504033537 | 52 | 281 | 1.7 | 5.2 | 0.00 | 0.00 | 0.00 | 48 | 1012.7 |
| 20260504033049 | 52 | 359 | 1.7 | 5.2 | 0.00 | 0.00 | 0.00 | 47 | 1012.7 |
| 20260504032536 | 53 | 253 | 1.7 | 5.2 | 0.00 | 0.00 | 0.00 | 47 | 1012.7 |
| 20260504032036 | 53 | 260 | 1.7 | 3.5 | 0.00 | 0.00 | 0.00 | 47 | 1012.6 |
| 20260504031536 | 53 | 247 | 1.7 | 5.2 | 0.00 | 0.00 | 0.00 | 46 | 1012.5 |
| 20260504031036 | 53 | 359 | 0.9 | 6.1 | 0.00 | 0.00 | 0.00 | 46 | 1012.6 |
| 20260504030538 | 53 | 247 | 1.7 | 4.3 | 0.00 | 0.00 | 0.00 | 46 | 1012.5 |
| 20260504030035 | 53 | 359 | 1.7 | 7.0 | 0.00 | 0.00 | 0.00 | 45 | 1012.5 |
| 20260504025535 | 54 | 265 | 1.7 | 7.0 | 0.00 | 0.00 | 0.00 | 45 | 1012.5 |
| 20260504025035 | 54 | 256 | 3.5 | 7.0 | 0.00 | 0.00 | 0.00 | 45 | 1012.5 |
| 20260504024535 | 54 | 359 | 3.5 | 7.0 | 0.00 | 0.00 | 0.00 | 45 | 1012.5 |
| 20260504024035 | 54 | 252 | 2.6 | 7.0 | 0.00 | 0.00 | 0.00 | 44 | 1012.6 |
| 20260504023535 | 54 | 359 | 2.6 | 7.0 | 0.00 | 0.00 | 0.00 | 44 | 1012.6 |
| 20260504023035 | 54 | 247 | 2.6 | 7.0 | 0.00 | 0.00 | 0.00 | 44 | 1012.6 |
| 20260504022534 | 54 | 220 | 3.5 | 7.0 | 0.00 | 0.00 | 0.00 | 43 | 1012.5 |
| 20260504022035 | 54 | 262 | 2.6 | 7.8 | 0.00 | 0.00 | 0.00 | 43 | 1012.5 |
| 20260504021536 | 55 | 359 | 0.9 | 5.2 | 0.00 | 0.00 | 0.00 | 43 | 1012.6 |
| 20260504021036 | 55 | 229 | 2.6 | 5.2 | 0.00 | 0.00 | 0.00 | 43 | 1012.6 |
| 20260504020536 | 55 | 269 | 2.6 | 6.1 | 0.00 | 0.00 | 0.00 | 42 | 1012.6 |
| 20260504020035 | 55 | 268 | 1.7 | 6.1 | 0.00 | 0.00 | 0.00 | 42 | 1012.7 |
| 20260504015533 | 55 | 256 | 1.7 | 6.1 | 0.00 | 0.00 | 0.00 | 42 | 1012.6 |
| 20260504015032 | 55 | 235 | 1.7 | 6.1 | 0.00 | 0.00 | 0.00 | 42 | 1012.5 |
| 20260504014535 | 55 | 269 | 3.5 | 7.0 | 0.00 | 0.00 | 0.00 | 41 | 1012.6 |
| 20260504014032 | 55 | 284 | 1.7 | 7.0 | 0.00 | 0.00 | 0.00 | 41 | 1012.4 |
| 20260504013532 | 55 | 270 | 3.5 | 7.0 | 0.00 | 0.00 | 0.00 | 41 | 1012.4 |
| 20260504013037 | 55 | 248 | 2.6 | 4.3 | 0.00 | 0.00 | 0.00 | 41 | 1012.4 |
| 20260504012532 | 55 | 359 | 0.9 | 5.2 | 0.00 | 0.00 | 0.00 | 41 | 1012.3 |
| 20260504012033 | 55 | 266 | 2.6 | 5.2 | 0.00 | 0.00 | 0.00 | 41 | 1012.3 |
| 20260504011532 | 55 | 255 | 2.6 | 4.3 | 0.00 | 0.00 | 0.00 | 40 | 1012.3 |
| 20260504011031 | 56 | 262 | 1.7 | 5.2 | 0.00 | 0.00 | 0.00 | 40 | 1012.2 |
| 20260504010531 | 56 | 260 | 2.6 | 5.2 | 0.00 | 0.00 | 0.00 | 40 | 1012.2 |
| 20260504010043 | 56 | 244 | 1.7 | 5.2 | 0.00 | 0.00 | 0.00 | 40 | 1012.0 |
| 20260504005530 | 56 | 249 | 1.7 | 3.5 | 0.00 | 0.00 | 0.00 | 39 | 1012.0 |
| 20260504005031 | 56 | 239 | 1.7 | 3.5 | 0.00 | 0.00 | 0.00 | 39 | 1012.0 |
| 20260504004531 | 56 | 261 | 1.7 | 5.2 | 0.00 | 0.00 | 0.00 | 38 | 1011.8 |
| 20260504004031 | 57 | 249 | 1.7 | 5.2 | 0.00 | 0.00 | 0.00 | 38 | 1011.8 |
| 20260504003531 | 57 | 272 | 1.7 | 4.3 | 0.00 | 0.00 | 0.00 | 37 | 1011.8 |
| 20260504003030 | 57 | 259 | 0.9 | 4.3 | 0.00 | 0.00 | 0.00 | 37 | 1011.6 |
| 20260504002531 | 57 | 256 | 1.7 | 4.3 | 0.00 | 0.00 | 0.00 | 37 | 1011.5 |
| 20260504002030 | 57 | 272 | 2.6 | 4.3 | 0.00 | 0.00 | 0.00 | 36 | 1011.4 |
| 20260504001530 | 58 | 268 | 0.9 | 3.5 | 0.00 | 0.00 | 0.00 | 36 | 1011.3 |
| 20260504001030 | 58 | 243 | 1.7 | 4.3 | 0.00 | 0.00 | 0.00 | 35 | 1011.3 |
| 20260504000532 | 58 | 235 | 1.7 | 4.3 | 0.00 | 0.00 | 0.00 | 35 | 1011.2 |
| 20260504000029 | 58 | 359 | 1.7 | 5.2 | 0.00 | 0.00 | 0.00 | 34 | 1011.2 |
| 20260503235529 | 59 | 291 | 2.6 | 7.0 | 0.00 | 0.00 | 0.00 | 34 | 1011.1 |
| 20260503235029 | 59 | 276 | 2.6 | 7.8 | 0.00 | 0.00 | 0.00 | 33 | 1011.1 |
| 20260503234528 | 59 | 359 | 3.5 | 11.3 | 0.00 | 0.00 | 0.00 | 33 | 1011.1 |
| 20260503234029 | 59 | 297 | 4.3 | 9.6 | 0.00 | 0.00 | 0.00 | 32 | 1011.0 |
| 20260503233528 | 60 | 294 | 1.7 | 9.6 | 0.00 | 0.00 | 0.00 | 33 | 1011.1 |
| 20260503233029 | 60 | 334 | 4.3 | 9.6 | 0.00 | 0.00 | 0.00 | 32 | 1010.9 |
| 20260503232528 | 60 | 241 | 3.5 | 14.8 | 0.00 | 0.00 | 0.00 | 32 | 1010.9 |
| 20260503232028 | 60 | 245 | 5.2 | 11.3 | 0.00 | 0.00 | 0.00 | 32 | 1010.9 |
| 20260503231528 | 60 | 245 | 5.2 | 12.2 | 0.00 | 0.00 | 0.00 | 31 | 1010.8 |
| 20260503231028 | 60 | 324 | 4.3 | 13.0 | 0.00 | 0.00 | 0.00 | 32 | 1010.8 |
| 20260503230528 | 60 | 359 | 4.3 | 13.9 | 0.00 | 0.00 | 0.00 | 32 | 1010.8 |
| 20260503230028 | 60 | 359 | 7.0 | 13.9 | 0.00 | 0.00 | 0.00 | 31 | 1010.7 |
| 20260503225527 | 61 | 290 | 4.3 | 12.2 | 0.00 | 0.00 | 0.00 | 32 | 1010.7 |
| 20260503225027 | 61 | 270 | 5.2 | 10.4 | 0.00 | 0.00 | 0.00 | 32 | 1010.6 |
| 20260503224526 | 61 | 359 | 3.5 | 12.2 | 0.00 | 0.00 | 0.00 | 31 | 1010.7 |
| 20260503224027 | 61 | 337 | 6.1 | 11.3 | 0.00 | 0.00 | 0.00 | 30 | 1010.8 |
| 20260503223525 | 61 | 253 | 4.3 | 12.2 | 0.00 | 0.00 | 0.00 | 30 | 1010.6 |
| 20260503223026 | 61 | 308 | 5.2 | 12.2 | 0.00 | 0.00 | 0.00 | 30 | 1010.6 |
| 20260503222525 | 61 | 334 | 5.2 | 15.6 | 0.00 | 0.00 | 0.00 | 29 | 1010.7 |
| 20260503222026 | 61 | 335 | 8.7 | 15.6 | 0.00 | 0.00 | 0.00 | 29 | 1010.6 |
| 20260503221532 | 61 | 359 | 7.8 | 12.2 | 0.00 | 0.00 | 0.00 | 29 | 1010.5 |
| 20260503221026 | 62 | 279 | 5.2 | 10.4 | 0.00 | 0.00 | 0.00 | 30 | 1010.6 |
| 20260503220527 | 62 | 286 | 5.2 | 13.9 | 0.00 | 0.00 | 0.00 | 29 | 1010.5 |
| 20260503220025 | 62 | 313 | 5.2 | 13.9 | 0.00 | 0.00 | 0.00 | 29 | 1010.6 |
| 20260503215523 | 61 | 262 | 4.3 | 12.2 | 0.00 | 0.00 | 0.00 | 30 | 1010.6 |
| 20260503215022 | 61 | 359 | 6.1 | 12.2 | 0.00 | 0.00 | 0.00 | 29 | 1010.6 |